Theta_e
357 359 360 361 361 360 358 357 357 356 356 355 356 358 359 358 358 358 360 364 363 362 364 365 366 366 366 367 364 364 362 362 359 358 358 358 357 357 355 355 355 353 353
354 357 360 360 360 360 360 359 358 357 357 357 359 360 359 357 359 361 360 361 363 361 363 365 366 365 364 364 364 363 362 362 359 356 355 357 357 356 355 354 351 354 351
349 350 352 356 357 360 362 361 360 361 359 358 359 358 359 359 360 362 363 362 362 364 360 361 365 366 365 364 364 363 361 360 360 357 356 356 356 355 355 353 353 353 351
346 345 347 351 353 359 360 360 359 358 358 357 357 359 359 359 360 360 360 361 362 361 363 359 361 366 366 363 361 362 363 361 360 357 358 356 357 356 355 353 352 353 352
344 345 345 347 353 355 359 359 358 358 356 355 357 357 357 357 356 354 358 360 362 362 362 365 360 361 365 363 362 363 364 361 360 360 358 357 356 354 351 353 352 352 353
345 346 346 348 348 352 356 358 360 359 358 357 355 354 354 357 355 354 356 353 355 358 361 363 363 362 361 363 363 363 364 362 363 363 358 356 355 353 353 352 353 351 352
347 348 345 346 348 348 354 359 358 358 362 358 355 352 353 355 354 353 352 351 354 351 355 357 361 361 362 358 359 360 362 362 363 364 362 359 356 355 353 353 351 349 351
346 348 349 346 348 351 358 360 360 356 358 359 351 350 339 341 351 352 351 349 353 353 352 356 358 360 363 364 363 359 359 360 361 362 362 359 357 355 353 353 351 349 350
348 348 349 349 352 357 356 360 360 358 354 362 358 350 343 341 345 352 351 350 354 351 354 360 361 363 365 365 364 362 358 357 360 360 360 362 357 354 353 352 353 351 348
345 348 350 351 357 358 359 359 359 360 360 357 359 355 356 352 342 339 350 349 353 348 352 353 355 360 364 364 363 359 358 358 357 354 355 357 356 357 358 356 356 354 352
349 351 358 360 359 359 359 360 352 352 357 356 353 350 355 354 352 345 339 344 349 348 350 351 352 356 359 359 360 357 353 353 353 352 353 355 353 351 354 358 359 356 355
353 357 359 359 357 356 357 354 357 357 356 358 358 357 354 350 349 348 344 345 344 348 350 349 350 353 356 358 356 350 349 347 347 347 348 350 353 354 357 358 357 358 357
352 351 353 355 357 355 353 352 357 359 359 358 359 356 356 353 351 350 348 344 341 347 347 348 350 351 354 354 349 349 346 343 342 342 343 344 346 348 351 354 355 356 356
347 351 354 357 356 356 358 358 357 354 354 352 353 351 349 348 349 351 348 344 340 344 345 344 350 347 346 347 345 346 344 341 341 340 340 341 342 344 345 346 348 350 351
353 359 360 359 357 358 357 356 352 350 349 348 346 346 346 347 346 344 345 346 343 337 338 343 341 344 345 346 342 343 341 337 339 339 338 338 339 340 340 340 340 341 342
358 358 356 356 356 354 351 348 342 342 341 338 339 341 341 341 342 345 346 341 341 342 337 334 335 334 339 341 340 341 338 338 336 336 335 334 334 334 334 333 333 334 335
354 355 355 352 350 345 343 341 339 338 337 337 338 338 337 338 336 337 339 340 336 338 335 336 337 337 336 337 337 338 339 338 335 334 334 333 332 332 331 331 330 330 330
351 351 350 347 343 341 340 339 337 336 335 334 335 335 335 334 335 336 335 337 337 339 338 333 334 333 333 337 337 337 335 335 334 331 331 332 332 331 330 329 327 326 325
348 346 344 342 340 340 339 339 338 336 335 334 334 333 333 334 333 332 332 331 332 332 333 330 327 329 329 329 329 333 334 336 333 334 331 330 331 332 329 328 327 324 321
345 345 342 341 340 339 338 337 337 336 335 335 336 336 335 333 332 332 329 329 329 326 327 323 322 322 323 326 324 323 325 332 326 332 331 328 330 331 331 328 328 326 323
342 342 340 339 338 335 332 335 335 335 335 334 335 335 335 334 332 331 326 328 327 323 320 319 319 318 319 319 321 322 320 323 326 326 325 324 326 329 331 328 328 327 324
339 339 339 338 336 331 328 330 333 332 331 330 328 330 332 331 332 330 330 329 330 328 325 320 320 320 323 322 322 322 320 317 315 326 323 320 323 325 326 323 324 324 323
338 337 335 335 334 332 327 326 327 327 323 323 324 325 324 324 330 331 325 325 323 324 325 330 326 326 326 328 327 323 324 321 318 324 324 316 322 320 324 322 322 321 320
336 333 332 333 332 327 323 322 322 323 322 323 323 325 325 327 325 329 327 323 323 322 323 323 323 325 328 327 326 324 324 323 321 324 327 316 320 318 322 324 320 319 319
333 331 329 327 324 322 318 318 322 321 321 323 325 326 326 325 317 320 324 322 322 320 316 317 316 316 316 316 319 318 316 314 312 315 324 318 318 318 319 321 322 320 319
331 330 328 326 322 321 316 316 321 320 320 320 323 326 319 323 316 317 324 320 317 317 318 319 319 319 320 318 318 319 317 312 312 312 318 316 317 317 312 319 319 320 320
Wind_Speed
2 1 1 1 2 3 3 4 4 5 7 8 7 7 8 9 9 6 6 8 10 12 14 16 15 18 17 18 18 18 16 15 14 14 16 17 17 15 17 18 16 16 16
1 1 1 2 3 3 2 3 4 4 6 7 8 9 10 10 10 9 8 8 8 11 11 13 15 16 17 16 17 17 16 15 13 16 16 17 15 15 15 17 20 18 17
2 3 3 3 4 4 5 3 4 3 6 6 8 8 9 9 8 9 8 7 7 7 8 10 13 12 16 16 15 15 13 14 14 16 21 20 19 17 18 16 20 22 20
2 3 3 4 5 4 4 4 4 5 6 7 8 8 8 7 6 7 6 6 6 6 3 4 8 9 10 13 12 14 15 14 13 19 21 21 17 15 13 15 18 22 24
2 3 3 4 6 5 4 4 5 4 6 7 8 7 7 6 4 5 5 4 5 5 4 3 7 9 10 12 14 13 15 16 12 14 14 13 14 11 12 16 18 20 24
3 4 4 4 5 5 5 5 6 5 6 6 8 8 6 2 3 4 4 4 5 5 6 6 6 4 7 13 14 14 16 14 12 13 10 14 13 13 18 19 13 13 22
4 4 5 5 5 6 7 7 6 6 5 4 6 5 3 3 4 4 3 5 7 5 6 5 4 4 4 7 10 10 12 13 13 14 12 12 15 17 18 18 12 13 16
5 6 6 6 6 6 7 7 5 5 3 3 4 4 3 4 2 4 4 4 9 6 7 8 7 6 5 4 5 7 8 9 11 11 9 9 11 19 18 16 15 19 18
6 6 7 7 7 7 6 7 5 5 5 2 4 3 2 2 6 1 4 5 9 6 7 7 8 6 5 4 4 3 5 7 9 9 12 8 9 13 18 17 19 24 23
4 7 8 8 8 7 8 6 4 5 5 6 1 2 5 3 3 3 2 4 6 7 9 8 9 8 9 6 8 10 11 10 10 10 11 9 6 4 15 19 21 24 22
5 7 8 8 7 5 5 4 4 5 5 5 4 1 2 1 3 4 5 6 4 4 7 7 9 8 9 8 8 13 15 13 11 10 10 9 5 5 6 9 16 22 24
4 6 8 7 4 4 4 4 3 5 4 5 3 4 3 3 2 3 4 5 6 2 2 7 9 9 9 8 13 19 19 19 17 16 15 14 11 10 10 11 7 16 20
4 7 6 4 3 3 4 5 5 4 1 0 0 1 1 1 2 2 4 4 5 3 2 5 8 8 9 9 9 13 20 17 16 15 16 16 14 12 11 12 9 6 9
3 7 6 5 5 6 5 4 1 3 4 4 5 4 2 2 3 3 4 5 4 0 3 7 6 8 7 8 9 10 12 15 15 14 15 15 17 18 17 16 16 14 13
6 7 6 6 5 3 4 4 4 5 6 5 4 4 3 3 2 3 3 3 4 3 3 8 6 10 6 7 10 10 11 17 17 17 17 18 16 17 18 18 18 17 16
4 5 4 5 6 6 6 6 6 6 6 5 4 5 4 4 3 3 2 3 3 5 2 5 6 7 9 7 10 9 11 10 18 18 18 17 18 19 20 20 20 19 18
6 7 7 7 7 7 7 8 8 7 8 8 7 8 8 6 5 5 4 4 4 3 3 3 4 6 7 8 8 7 7 8 9 15 16 16 16 18 19 19 19 19 19
6 7 7 8 8 8 8 8 8 8 9 9 8 9 9 7 8 8 7 8 7 6 3 4 7 7 10 9 9 9 7 8 9 13 11 12 12 13 14 15 14 14 14
8 8 9 9 9 9 9 9 10 10 10 10 10 11 10 9 10 9 10 8 7 6 6 6 6 6 7 9 9 8 8 7 8 6 8 11 9 11 12 13 13 13 12
9 9 9 9 9 9 9 9 9 9 9 10 10 11 11 10 10 9 9 8 8 7 7 6 7 7 6 8 7 8 7 5 9 7 5 6 4 8 9 9 12 13 11
9 10 10 10 9 8 7 9 9 9 9 9 8 9 10 12 14 11 7 8 8 8 7 7 7 7 7 7 8 7 7 6 6 8 6 8 7 7 7 10 11 13 11
10 10 10 9 9 7 10 10 9 9 8 8 7 6 7 9 11 12 12 14 11 7 7 6 6 6 8 6 7 7 8 7 6 8 8 6 7 6 6 7 10 11 11
11 10 10 10 10 9 10 11 9 8 8 8 7 7 6 6 5 6 8 8 10 10 8 5 6 6 6 7 8 7 7 7 7 6 8 6 6 5 4 6 9 12 12
10 9 9 9 9 8 11 12 11 9 8 8 7 7 6 6 5 4 6 7 8 9 9 6 7 6 6 7 6 5 6 7 2 3 8 7 6 7 4 3 3 8 11
10 8 9 9 9 8 10 10 8 8 8 6 5 5 5 7 7 5 6 6 6 7 7 9 10 9 9 11 11 7 8 8 7 6 6 8 7 8 7 4 6 6 4
10 8 8 8 9 9 8 9 6 6 6 4 4 5 7 6 4 4 6 5 6 7 6 6 5 5 6 8 10 9 8 8 7 6 9 8 7 6 7 4 8 7 7
Wind_Direction
108 273 328 313 327 319 301 306 314 319 307 305 307 312 309 303 295 287 291 276 255 252 251 250 237 231 232 228 231 231 232 233 224 247 248 242 236 229 215 197 220 219 223
83 28 15 45 21 11 3 343 350 337 326 319 313 310 305 301 291 291 286 287 275 272 262 254 252 244 249 246 243 244 239 237 223 221 241 252 250 240 236 214 201 219 229
51 359 1 19 15 0 343 319 327 327 324 316 305 305 301 293 296 295 287 283 289 239 251 260 259 257 240 241 246 253 260 245 235 230 227 231 229 234 227 218 216 212 214
16 1 349 5 351 338 337 326 335 330 320 312 315 311 309 306 310 300 296 299 302 300 229 251 284 288 262 246 250 252 249 253 235 231 232 233 223 224 237 213 216 216 212
345 338 331 343 337 331 328 332 316 319 313 319 311 310 310 321 353 0 353 347 329 298 300 295 287 292 264 254 254 276 255 256 263 259 244 247 239 216 248 252 218 219 212
288 319 312 324 323 324 316 306 305 313 304 314 309 312 325 322 322 358 23 28 6 338 315 301 300 282 251 260 264 274 277 270 273 276 277 242 222 222 236 247 226 221 216
260 272 293 305 308 302 305 300 297 307 315 306 298 322 348 359 44 17 31 24 15 3 351 338 304 300 289 257 275 283 300 302 294 297 270 242 217 223 240 242 211 224 224
250 261 278 293 306 303 296 287 298 312 297 302 314 304 342 331 325 356 8 348 360 4 358 343 330 316 302 314 337 320 308 305 319 322 300 271 207 230 226 240 211 218 231
249 255 268 286 295 285 290 303 293 269 289 265 247 293 280 300 333 5 326 356 357 7 360 352 3 2 0 357 337 10 3 333 337 7 358 342 195 220 223 221 221 213 219
250 264 274 279 282 292 290 286 277 273 264 288 299 259 270 316 314 304 253 351 11 23 25 24 12 17 26 30 24 32 3 17 14 25 28 27 29 231 224 229 224 214 218
247 272 282 294 294 282 266 273 288 271 267 274 251 293 264 211 244 272 320 352 3 44 43 30 34 29 30 28 34 32 26 30 21 15 9 8 355 337 308 270 230 219 222
293 302 313 290 277 282 278 271 274 267 269 275 287 270 323 313 306 305 306 337 331 27 72 43 34 28 31 33 45 44 37 36 32 29 29 25 12 0 348 335 250 228 233
320 319 310 276 243 221 267 251 268 265 210 71 87 83 44 10 335 304 296 317 308 3 35 67 38 30 29 35 41 35 41 40 41 44 41 37 29 22 14 8 7 289 264
270 271 257 258 235 256 246 230 156 84 70 63 68 70 71 34 15 333 327 322 315 128 101 13 65 28 29 32 40 35 52 29 34 35 34 37 38 37 37 32 26 20 11
242 233 230 218 209 202 152 112 89 79 75 67 69 66 55 48 46 25 359 342 324 323 42 51 7 28 29 35 24 41 47 39 34 33 33 29 28 37 40 39 41 41 39
182 150 149 138 121 115 102 109 98 78 85 75 68 66 54 36 40 31 23 26 4 321 51 17 34 12 11 24 30 30 35 35 40 34 37 40 41 43 48 48 45 41 37
139 131 117 115 114 108 98 93 90 92 91 85 78 75 66 49 46 37 32 44 34 8 74 80 47 40 33 26 23 23 30 30 53 32 35 37 41 46 46 46 46 46 46
129 124 125 112 107 107 105 102 101 94 89 85 78 72 59 57 57 47 54 47 42 38 2 59 35 33 33 17 20 28 22 33 36 43 35 34 38 41 39 38 37 39 37
122 115 109 115 116 104 105 104 98 92 84 81 74 68 61 57 53 48 43 46 52 52 54 60 56 36 33 19 17 25 27 23 23 46 59 59 38 34 34 34 34 28 25
122 116 115 116 106 106 102 98 97 97 94 83 76 71 65 60 60 60 58 57 52 58 57 57 55 49 32 23 25 19 23 35 23 14 72 51 27 72 42 28 41 28 19
117 123 118 111 110 114 111 114 110 100 92 86 75 72 68 69 65 48 67 59 57 55 52 55 51 49 39 25 19 10 23 12 56 17 14 30 20 31 46 55 32 25 13
123 122 125 123 113 99 108 100 103 97 89 88 85 84 86 86 80 72 69 54 39 53 56 37 46 35 29 13 16 4 8 7 8 39 342 38 6 38 43 44 15 13 12
129 123 118 114 106 110 104 100 102 101 100 87 80 82 86 79 82 91 81 84 68 53 38 9 17 17 358 4 343 342 8 350 354 2 343 345 16 28 12 81 18 7 10
125 124 119 113 108 104 110 108 107 107 96 84 71 67 72 69 63 83 80 69 57 47 27 31 35 27 21 358 343 331 336 312 315 25 350 332 2 346 345 15 70 3 4
131 128 117 116 115 115 117 117 125 115 103 91 75 59 62 76 58 11 64 58 64 53 94 63 60 54 47 29 11 353 6 347 350 4 25 330 354 334 326 313 349 48 19
133 133 126 120 116 123 127 126 137 123 121 111 92 71 51 73 75 20 57 40 49 35 24 35 52 68 42 52 40 27 0 353 354 343 39 329 345 349 327 1 347 2 344